This demonstration page uses our WeatherBlox Daily Observations layout. Learn more.

Left ArrowRight Arrow

Hourly Observations for August 3, 2017

Temp ( °F °C ) Dew Point ( °F °C ) Humidity (%) Winds ( mph kmh ) Pressure ( in mb ) Visibility ( mi km ) Precip ( " mm )
12:51 am 00:51 Clear 78 25.6 62 16.7 58 58 E 7 11 29.91 1013 10 16.0934 N/A
1:51 am 01:51 Clear 78 25.6 62 16.7 58 58 ESE 7 11 29.91 1013 10 16.0934 N/A
2:51 am 02:51 Clear 77 25 63 17.2 62 62 ESE 9 15 29.91 1013 10 16.0934 N/A
3:51 am 03:51 Clear 76 24.4 63 17.2 64 64 SE 8 13 29.92 1013 10 16.0934 N/A
4:51 am 04:51 Clear 76 24.4 63 17.2 64 64 ESE 8 13 29.93 1014 10 16.0934 N/A
5:51 am 05:51 Sunny 76 24.4 62 16.7 62 62 SE 10 17 29.94 1014 10 16.0934 N/A
6:51 am 06:51 Mostly Sunny 76 24.4 63 17.2 64 64 ESE 10 17 29.96 1015 10 16.0934 N/A
7:51 am 07:51 Partly Cloudy 78 25.6 63 17.2 60 60 SSE 10 17 29.98 1015 10 16.0934 N/A
8:51 am 08:51 Sunny 81 27.2 62 16.7 53 53 SSE 9 15 29.99 1016 10 16.0934 N/A
9:51 am 09:51 Sunny 85 29.4 62 16.7 46 46 ESE 5 7 29.97 1015 10 16.0934 N/A
10:51 am 10:51 Sunny 88 31.1 63 17.2 43 43 ESE 8 13 29.95 1014 10 16.0934 N/A
11:51 am 11:51 Sunny 91 32.8 61 16.1 37 37 VRB 3 6 29.93 1014 10 16.0934 N/A
12:51 pm 12:51 Sunny 91 32.8 60 15.6 35 35 N N/A 29.91 1013 10 16.0934 N/A
1:51 pm 13:51 Sunny 92 33.3 60 15.6 34 34 N N/A 29.88 1012 10 16.0934 N/A
2:51 pm 14:51 Sunny 93 33.9 58 14.4 31 31 N N/A 29.85 1011 10 16.0934 N/A
3:51 pm 15:51 Sunny 92 33.3 61 16.1 36 36 WNW 13 20 29.83 1010 10 16.0934 N/A
4:51 pm 16:51 Sunny 92 33.3 59 15 33 33 W 10 17 29.83 1010 10 16.0934 N/A
5:51 pm 17:51 Sunny 91 32.8 58 14.4 33 33 WNW 12 19 29.81 1010 10 16.0934 N/A
6:51 pm 18:51 Sunny 89 31.7 60 15.6 38 38 WNW 10 17 29.83 1010 10 16.0934 N/A
7:51 pm 19:51 Mostly Clear 85 29.4 63 17.2 48 48 WNW 8 13 29.86 1011 10 16.0934 N/A
8:51 pm 20:51 Clear 83 28.3 60 15.6 46 46 WNW 9 15 29.89 1012 10 16.0934 N/A
9:51 pm 21:51 Clear 82 27.8 61 16.1 49 49 NW 9 15 29.89 1012 10 16.0934 N/A
10:51 pm 22:51 Clear 81 27.2 59 15 47 47 WNW 7 11 29.9 1012 10 16.0934 N/A
11:51 pm 23:51 Clear 81 27.2 58 14.4 45 45 WNW 9 15 29.88 1012 10 16.0934 N/A

Powered by AerisWeather